CZ-3B DEB, 40814

Orbit data source: Space-Track

CZ-3B DEB, 40814 is space debris in HEO originally from a launch on Sat, 04 Sep 2010 UTC launched from the Xichang Space Center, China (XSC). Debris objects in space refer to the collection of defunct objects orbiting the Earth. Examples of debris include non-operational satellites, rocket bodies, and fragments generated from explosions, collisions, or faulty payload assembly.

Loading next visibility...
Identifier
40814, 2010-042X
Orbit
HEO
Country
Flag of CNCN / PRC
Related business
Manufacturer
CALT
Mission
Spacecraft
Bus & Motor
Unknown
Mass
Unknown
Launch date (UTC)
2010-09-04 (16 years ago)
Launch vehicle
Unknown
Launch site
Xichang Space Center, China (XSC)
Object type
Payload
Rocket body
Debris
Shape & HBR
Unknown shape, 0.1 m
Radar Cross Section
Medium (>0.1 m² and <1 m²)

Expand to show TLE details & history
Last TLE update: 1 week ago

TLE from 1 week ago
0 CZ-3B DEB
1 40814U 10042X   26166.87143120 -.00000501  00000-0 -46712-1 0  9990
2 40814  26.2132 156.1322 7333435 161.6951 254.4462  1.90410009 80742
Epoch: 2026-06-15T20:54Z
TLE epoch observation values (Epoch: 2026-06-15T20:54:51.655Z)
Latitude
-0.00009°
Longitude
-61.69532°
Altitude
35,380.061 km
Speed
2.143 km/s
True Right ascension
10h 24m 41s
True Declination
0° 00' 00"
Sunlit
Object was in daylight at epoch
Visualization orbit readout
Latitude
Unknown
Longitude
Unknown
Altitude
Unknown
Speed
Unknown
Apparent Right ascension
Unknown
Apparent Declination
Unknown
Sunlit
N/A
Visualization observer readout
Local Sidereal Time
21:44:01
Azimuth
Unknown
Elevation
Unknown
Doppler factor
Unknown
Orbital elements
Apogee altitude
41,288.792 km
Perigee altitude
954.914 km
Semi-major axis
27,499.99 km
Eccentricity
0.73334
Inclination
26.2132°
RAAN
156.1322°
Arg. of periapsis
161.6951°
True anomaly
198.37785°
Mean anomaly
254.4462°
Eccentric anomaly
224.82581°
Mean motion
0.47593 °/min
Orbital period
756.41 mins
BSTAR
-0.046712
Loading maneuver chart data...
Computing Atmospheric mass density...
Loading historical data...
Loading historical data...
Loading historical data...
Loading historical data...
Loading historical data...
Loading historical data...
Loading historical data...

Documentation

Showing up to 5 results
|